www.pogodaiklimat.ru

Погода и климат >> Архив погоды >> Китай >> Внутренняя Монголия >> Шинэ-Барга-Юци


ПОГОДА в Шинэ-Барга-Юци

  • Прогноз погоды в Шинэ-Барга-Юци
  • Монитор погоды в Шинэ-Барга-Юци

АРХИВ ПОГОДЫ в Шинэ-Барга-Юци

Время (UTC), дата Ветер
(напр.,м/с)
 
Видим.   Явления Облачность Т
(С)
Тd
(С)
f
(%)
Тe
(С)
Тes
(С)
Комфортность P
(гПа)
Po
(гПа)
Тmin
(С)
Tmax
(С)
R
(мм)
R24
(мм)
S
(см)
06 13.06 С 10
{19}
30 км 8/8 600 м
[]
+22.7 +4.3 30 +23 +23 комфорт 1003.4 941.7 +12.5
09 13.06 С 9
{18}
30 км 8/8 600 м
[]
+21.1 +5.1 35 +22 +22 комфорт 1004.0 941.2
12 13.06 СВ 5
{17}
30 км 6/6 1000 м
[]
+18.5 +5.7 43 +18 +18 1005.5 943.8
15 13.06 С 2 30 км н/о +14.6 +5.4 54 +14 +14 1007.5 943.1
18 13.06 С 4 30 км н/о +10.9 +5.0 67 +9 +9 1008.4 946.1 +23.5
21 13.06 С 4 30 км н/о +10.9 +5.4 69 +9 +9 1009.3 944.0
00 14.06 С 5 30 км 1/1 600 м
[]
+17.1 +6.0 48 +16 +20 1009.7 947.6
03 14.06 С 3 30 км 3/3 600 м
[]
+20.5 +6.5 40 +22 +32 комфорт 1009.1 945.9
06 14.06 В 3 30 км 8/8 1000 м
[]
+23.6 +7.3 35 +24 +27 комфорт 1007.5 945.4 +10.0
09 14.06 В 6 30 км 6/6 1000 м
[]
+23.2 +6.1 33 +24 +24 комфорт 1006.9 944.4
12 14.06 В 2 30 км 1/1
[]
+21.6 +5.5 35 +22 +22 комфорт 1007.4 945.7
15 14.06 В 2 30 км ?/? +17.2 +6.7 50 +18 +18 1008.5 944.6
18 14.06 ЮВ 3 30 км н/о +15.1 +7.4 60 +14 +14 1009.1 947.3 +24.1
21 14.06 В 2 30 км ?/? +12.7 +7.2 69 +12 +12 1010.0 945.0
00 15.06 Ю 4 30 км 3/3
[]
+18.2 +7.9 51 +18 +22 1010.6 948.8
03 15.06 В 6 30 км 3/3
[]
+22.5 +4.1 30 +23 +27 комфорт 1009.4 946.6
06 15.06 В 6 30 км 5/5
[]
+24.6 +4.9 28 +24 +27 комфорт 1007.4 945.8 +12.2
09 15.06 В 7 30 км 8/8
[]
+25.0 +5.2 28 +25 +25 комфорт 1006.4 944.3
12 15.06 В 5 30 км 9/9
[]
+21.0 +8.3 44 +22 +22 комфорт 1006.6 945.0
15 15.06 В 4 30 км ?/? +17.0 +8.7 58 +17 +17 1007.0 943.2
18 15.06 Ю 3 30 км н/о +15.4 +3.9 46 +15 +15 1006.9 945.4 +25.1
21 15.06 Ю 3 30 км ?/? +14.3 +4.0 50 +14 +14 1007.7 943.2
00 16.06 Ю 5 30 км 9/9
[]
+18.9 +4.7 39 +19 +19 1007.9 946.3
03 16.06 В 5 30 км 5/5
[]
+23.2 +3.2 27 +23 +27 комфорт 1007.0 944.5
06 16.06 Ю 5 30 км 3/3
[]
+25.0 +1.8 22 +24 +30 комфорт 1005.5 944.1 +13.8
09 16.06 В 4 30 км 4/4
[]
+25.4 +2.8 23 +24 +26 комфорт 1004.0 942.1
12 16.06 В 5 30 км 5/5
[]
+21.7 +5.6 35 +22 +22 комфорт 1003.8 942.5
15 16.06 В 2 30 км ?/? +16.7 +8.9 60 +17 +17 1004.7 940.9
18 16.06 штиль 0 30 км н/о +12.8 +3.2 52 +13 +13 1005.7 944.0 +26.1
21 16.06 В 1 30 км ?/? +10.5 +1.8 55 +11 +11 1005.4 940.3
00 17.06 В 2 30 км 3/3
[]
+19.5 +5.9 41 +21 +26 комфорт 1004.7 943.4
03 17.06 В 6 30 км 1/1
[]
+24.2 +4.6 28 +24 +30 комфорт 1004.0 941.8
06 17.06 В 5 30 км 1/1 600 м
[]
+26.7 +5.1 25 +26 +33 жарко 1002.9 941.6 +10.2
09 17.06 В 6 30 км 1/1 600 м
[]
+28.0 +4.3 22 +27 +28 жарко 1001.9 940.6
12 17.06 В 5 30 км 1/1
[]
+25.6 +5.2 27 +25 +25 комфорт 1001.6 940.9
15 17.06 С 4 30 км н/о +21.4 +1.1 26 +21 +21 комфорт 1002.4 939.8
18 17.06 С 2 30 км н/о +16.1 +1.0 36 +16 +16 1003.6 942.6 +28.6
21 17.06 С 1 30 км н/о +15.2 +1.0 38 +16 +16 1004.1 940.1
00 18.06 С 4 30 км 3/3
[]
+24.4 +5.7 30 +24 +28 комфорт 1003.7 943.4
03 18.06 С 2 30 км 8/8
[]
+28.9 +6.9 25 +28 +31 жарко 1003.5 942.3
06 18.06 В 2 30 км 8/8 1000 м
[]
+31.2 +4.9 19 +29 +32 жарко 1002.0 941.5 +13.7
09 18.06 З 7 30 км 8/8 1000 м
[]
+32.5 +1.6 14 +29 +30 жарко 1000.7 940.4
12 18.06 С 3 30 км 3/3 1000 м
[]
+27.9 +2.9 20 +26 +26 жарко 1000.2 940.3
15 18.06 СЗ 3 30 км н/о +19.3 +7.1 45 +20 +20 1001.6 938.6
18 18.06 СЗ 3 30 км н/о +18.0 +2.3 35 +18 +18 1001.4 941.1 +32.5
21 18.06 З 3 30 км н/о +18.7 +4.1 38 +19 +19 1000.9 937.8
00 19.06 С 6 30 км 1/1
[]
+29.6 +5.7 22 +28 +31 жарко 1000.2 940.8
03 19.06 С 5 30 км 3/3 600 м
[]
+31.6 +10.3 27 +31 +38 жарко 1000.1 939.6
06 19.06 С 10 30 км 9/9 1000 м
[]
+34.2 +10.1 23 +33 +33 жарко 998.2 938.4 +16.8
09 19.06 С 10
{17}
30 км 9/9 1000 м
[]
+30.2 +11.2 31 +31 +31 жарко 998.6 938.0
12 19.06 В 1
{17}
30 км 9/9 1000 м
[]
+28.4 +11.0 34 +29 +29 жарко 997.5 938.3
15 19.06 Ю 2
{19}
30 км в посл. час дождь ?/? +20.6 +16.8 79 +25 +25 комфорт 1001.3 938.6
18 19.06 В 2
{19}
30 км ?/? +20.0 +15.8 77 +23 +23 комфорт 1000.6 940.9 +35.1 3
21 19.06 С 3 30 км н/о +16.5 +15.2 92 +16 +16 1002.4 938.8
00 20.06 С 1 30 км 3/3
[]
+23.2 +14.5 58 +27 +33 душно 1002.9 942.8 3
03 20.06 В 3 30 км 3/3 1000 м
[]
+27.3 +14.3 45 +30 +40 душно 1003.3 941.8

 

Местоположение метеостанции Шинэ-Барга-Юци (Внутренняя Монголия, Китай): широта 48.67 долгота 116.81 высота над уровнем моря 556 м.

В архиве по умолчанию представлена погода в Шинэ-Барга-Юци за последнюю неделю. Архивные данные за месяц целиком и за предыдущие месяцы, начиная с января 2011 года, Вы можете получить, выбрав интересующий диапазон дат из раскрывающегося списка и нажав кнопку "Ввод!".


*Определитесь, кто Вы:
робот инопланетянин человек

Внимание! Время в таблицах - всемирное. Для получения местного времени необходимо прибавить поправку, которая равна 8 ч.

Смотрите также архив погоды в соседних городах и на ближайших метеорологических станциях:

Погода в Забайкальске (Забайкальский край, Россия) (113 км)
Погода в Соловьевске (Забайкальский край, Россия) (159 км)
Погода в Кайластуе (Забайкальский край, Россия) (168 км)
Погода в Халхин-Голе (Монголия) (177 км)
Погода в Чойбалсане (Монголия) (179 км)
Погода в Матаде (Монголия) (189 км)
Погода в Борзе (Забайкальский край, Россия) (194 км)
Погода в Дашбалбаре (Монголия) (201 км)
Погода в Хайларе (Внутренняя Монголия, Китай) (223 км)
Погода в Бырке (Забайкальский край, Россия) (236 км)

Пояснения к столбцам:

Ветер - указаны скорость ветра в м/с - средняя за 10 мин, порывы в срок и между сроками (в фигурных скобках) и направление, откуда дует ветер: С - северный, СВ - северо-восточный, В - восточный, ЮВ - юго-восточный, Ю - южный, ЮЗ - юго-западный, З - западный, СЗ - северо-западный.
Видимость - горизонтальная дальность видимости в метрах или километрах. При видимости от 1 до 10 км при отсутствии осадков обычно наблюдается дымка, при ухудшении видимости до 1 км и менее - туман. В сухую погоду видимость может ухудшаться дымом, пылью или мглою.
Явления - указаны атмосферные явления, наблюдавшиеся в срок или в последний час перед сроком; фигурными скобками обозначены явления, наблюдавшиеся между сроками (за 1-3 часа до срока); квадратными скобками обозначены град или гололедные отложения с указанием их диаметра в мм.
Облачность - указаны через наклонную черту общая и нижняя облачность в баллах и высота нижней границы облаков в метрах; квадратными скобками обозначены формы облаков: Ci - перистые, Cs - перисто-слоистые, Cc - перисто-кучевые, Ac - высококучевые, As - высокослоистые, Sc - слоисто-кучевые, Ns - слоисто-дождевые, Cu - кучевые, Cb - кучево-дождевые. Подробнее классификацию облаков см. в Атласе облаков (PDF).
T - Температура воздуха - температура, измеренная на высоте 2 м над землей.
Td - Температура точки росы - температура, при понижении до которой содержащийся в воздухе водяной пар достигнет насыщения.
f - Относительная влажность воздуха - влажноcть воздуха, измеренная на высоте 2 м над землей.
Te - Эффективная температура - температура, которую ощущает одетый по сезону человек в тени. Характеристика душности погоды. При расчете учитывается влияние влажности воздуха и скорости ветра на теплоощущения человека.
Tes - Эффективная температура на солнце - температура, которую ощущает человек, с поправкой на солнечный нагрев. Характеристика знойности погоды. Зависит от высоты солнца над горизонтом, облачности и скорости ветра. Ночью, в пасмурную погоду, а также при ветре 12 м/с и более поправка равна нулю.
P - Атмосферное давление - приведенное к уровню моря атмосферное давление.
Po - Атмосферное давление - измеренное на уровне метеостанции атмосферное давление.
Tmin - Минимальная температура - минимум температуры воздуха на высоте 2 м над землей.
Tmax - Максимальная температура - максимум температуры воздуха на высоте 2 м над землей.
R - Количество осадков - Количество выпавших осадков за период времени, мм. При наведении курсора мыши на число - период времени, за который выпало указанное количество осадков.
R24 - Количество осадков - Количество выпавших осадков за 24 часа, мм.
S - Снежный покров - Высота снежного покрова, см. При наведении курсора мыши на число - состояние снежного покрова и степень покрытия местности в баллах.